When you browse on this site, cookies collect data to enhance your experience and personalize the content and advertising you see.
Visit our Privacy Policy to learn more. By continuing to use the site, you agree to this use of cookies and data.
  • In Romania
  • List of Countries
  • For 7 days
  • Water Temperature
  • Weather Map
  • Weather Widgets
  • user-avatar
    Login

    Hourly Weather Manaus

    Today, 13 November, Wednesday

    Time Temperature Precipitation Wind Pressure Humidity
    00:00 +24°C° 0 mm 0 mps 752 mmHg 93%
    01:00 +24°C° 0 mm 0 mps 751 mmHg 93%
    02:00 +26°C° 0 mm 1 mps 751 mmHg 93%
    03:00 +26°C° 0 mm 1 mps 751 mmHg 93%
    04:00 +26°C° 0 mm 1 mps 751 mmHg 93%
    05:00 +26°C° 0 mm 1 mps 751 mmHg 93%
    06:00 +27°C° 0 mm 1 mps 752 mmHg 92%
    07:00 +27°C° 0 mm 1 mps 753 mmHg 90%
    08:00 +28°C° 0 mm 1 mps 753 mmHg 88%
    09:00 +29°C° 0 mm 1 mps 753 mmHg 82%
    10:00 +30°C° 0 mm 1 mps 753 mmHg 76%
    11:00 +31°C° 0 mm 1 mps 753 mmHg 70%
    12:00 +32°C° 0.1 mm 1 mps 752 mmHg 65%
    13:00 +33°C° 0.1 mm 1 mps 751 mmHg 60%
    14:00 +35°C° 0.1 mm 2 mps 750 mmHg 55%
    15:00 +34°C° 0.3 mm 1 mps 750 mmHg 59%
    16:00 +33°C° 0.3 mm 1 mps 750 mmHg 63%
    17:00 +32°C° 0.3 mm 1 mps 750 mmHg 67%
    18:00 +31°C° 0.3 mm 1 mps 750 mmHg 73%
    19:00 +29°C° 0.3 mm 2 mps 751 mmHg 79%
    20:00 +28°C° 0.3 mm 2 mps 751 mmHg 85%
    21:00 +27°C° 0.3 mm 2 mps 751 mmHg 87%
    22:00 +27°C° 0.3 mm 1 mps 751 mmHg 89%
    23:00 +26°C° 0.3 mm 1 mps 751 mmHg 90%

    Tomorrow, 14 November, Thursday

    Time Temperature Precipitation Wind Pressure Humidity
    00:00 +26°C° 0 mm 1 mps 751 mmHg 90%
    01:00 +24°C° 0 mm 0 mps 751 mmHg 89%
    02:00 +24°C° 0 mm 0 mps 750 mmHg 88%
    03:00 +23°C° 0 mm 0 mps 750 mmHg 88%
    04:00 +23°C° 0 mm 0 mps 751 mmHg 88%
    05:00 +23°C° 0 mm 0 mps 751 mmHg 89%
    06:00 +25°C° 0 mm 0 mps 752 mmHg 83%
    07:00 +28°C° 0 mm 1 mps 752 mmHg 77%
    08:00 +29°C° 0 mm 1 mps 753 mmHg 72%
    09:00 +32°C° 0.1 mm 1 mps 753 mmHg 63%
    10:00 +34°C° 0.1 mm 1 mps 753 mmHg 54%
    11:00 +36°C° 0.1 mm 1 mps 753 mmHg 45%
    12:00 +36°C° 0 mm 1 mps 752 mmHg 44%
    13:00 +37°C° 0 mm 1 mps 751 mmHg 42%
    14:00 +37°C° 0 mm 1 mps 750 mmHg 41%
    15:00 +36°C° 0 mm 1 mps 750 mmHg 46%
    16:00 +35°C° 0 mm 1 mps 749 mmHg 50%
    17:00 +34°C° 0 mm 1 mps 749 mmHg 55%
    18:00 +32°C° 0.7 mm 1 mps 750 mmHg 65%
    19:00 +30°C° 0.7 mm 1 mps 750 mmHg 75%
    20:00 +28°C° 0.7 mm 2 mps 750 mmHg 85%
    21:00 +28°C° 0.1 mm 1 mps 751 mmHg 86%
    22:00 +27°C° 0.1 mm 1 mps 751 mmHg 88%
    23:00 +27°C° 0.1 mm 1 mps 751 mmHg 89%

    Day after tomorrow, 15 November, Friday

    Time Temperature Precipitation Wind Pressure Humidity
    00:00 +27°C° 0 mm 1 mps 751 mmHg 89%
    01:00 +27°C° 0 mm 1 mps 750 mmHg 90%
    02:00 +27°C° 0 mm 1 mps 750 mmHg 90%
    03:00 +27°C° 0 mm 1 mps 750 mmHg 89%
    04:00 +24°C° 0 mm 0 mps 750 mmHg 88%
    05:00 +24°C° 0 mm 0 mps 751 mmHg 88%
    06:00 +27°C° 0 mm 1 mps 751 mmHg 87%
    07:00 +28°C° 0 mm 1 mps 752 mmHg 83%
    08:00 +27°C° 0 mm 0 mps 753 mmHg 80%
    09:00 +28°C° 0.1 mm 0 mps 752 mmHg 75%
    10:00 +32°C° 0.1 mm 1 mps 752 mmHg 69%
    11:00 +33°C° 0.1 mm 1 mps 752 mmHg 64%
    12:00 +34°C° 0.3 mm 1 mps 751 mmHg 59%
    13:00 +35°C° 0.3 mm 1 mps 750 mmHg 55%
    14:00 +36°C° 0.3 mm 1 mps 749 mmHg 51%
    15:00 +33°C° 1.7 mm 1 mps 749 mmHg 63%
    16:00 +31°C° 1.7 mm 2 mps 749 mmHg 75%
    17:00 +29°C° 1.7 mm 2 mps 749 mmHg 87%
    18:00 +28°C° 1.6 mm 1 mps 750 mmHg 89%
    19:00 +27°C° 1.6 mm 1 mps 750 mmHg 91%
    20:00 +25°C° 1.6 mm 0 mps 751 mmHg 93%
    21:00 +27°C° 0 mm 1 mps 751 mmHg 93%
    22:00 +27°C° 0 mm 1 mps 751 mmHg 93%
    23:00 +26°C° 0 mm 1 mps 751 mmHg 93%

    16 November, Saturday

    Time Temperature Precipitation Wind Pressure Humidity
    00:00 +26°C° 0.1 mm 2 mps 751 mmHg 93%
    01:00 +26°C° 0.1 mm 2 mps 750 mmHg 94%
    02:00 +26°C° 0.1 mm 3 mps 750 mmHg 95%
    03:00 +26°C° 0 mm 2 mps 750 mmHg 95%
    04:00 +26°C° 0 mm 2 mps 750 mmHg 95%
    05:00 +26°C° 0 mm 1 mps 750 mmHg 95%
    06:00 +26°C° 0 mm 1 mps 751 mmHg 93%
    07:00 +27°C° 0 mm 1 mps 751 mmHg 91%
    08:00 +27°C° 0 mm 1 mps 752 mmHg 88%
    09:00 +28°C° 0 mm 1 mps 752 mmHg 83%
    10:00 +29°C° 0 mm 1 mps 752 mmHg 77%
    11:00 +30°C° 0 mm 2 mps 752 mmHg 71%
    12:00 +30°C° 0.1 mm 2 mps 751 mmHg 70%
    13:00 +31°C° 0.1 mm 2 mps 750 mmHg 69%
    14:00 +31°C° 0.1 mm 3 mps 749 mmHg 68%
    15:00 +30°C° 0 mm 2 mps 749 mmHg 71%
    16:00 +29°C° 0 mm 1 mps 749 mmHg 75%
    17:00 +26°C° 0 mm 0 mps 749 mmHg 79%
    18:00 +26°C° 0.7 mm 0 mps 750 mmHg 82%
    19:00 +25°C° 0.7 mm 0 mps 750 mmHg 85%
    20:00 +25°C° 0.7 mm 0 mps 751 mmHg 88%
    21:00 +24°C° 0.8 mm 0 mps 751 mmHg 90%
    22:00 +24°C° 0.8 mm 0 mps 751 mmHg 93%
    23:00 +24°C° 0.8 mm 0 mps 752 mmHg 95%

    17 November, Sunday

    Time Temperature Precipitation Wind Pressure Humidity
    00:00 +24°C° 0.8 mm 0 mps 751 mmHg 96%
    01:00 +25°C° 0.8 mm 1 mps 751 mmHg 97%
    02:00 +25°C° 0.8 mm 1 mps 750 mmHg 98%
    03:00 +25°C° 0.1 mm 1 mps 751 mmHg 98%
    04:00 +25°C° 0.1 mm 1 mps 751 mmHg 98%
    05:00 +25°C° 0.1 mm 1 mps 751 mmHg 98%
    06:00 +25°C° 0.2 mm 1 mps 752 mmHg 96%
    07:00 +26°C° 0.2 mm 1 mps 752 mmHg 95%
    08:00 +26°C° 0.2 mm 1 mps 753 mmHg 94%
    09:00 +27°C° 0.4 mm 2 mps 753 mmHg 91%
    10:00 +28°C° 0.4 mm 2 mps 753 mmHg 88%
    11:00 +29°C° 0.4 mm 2 mps 753 mmHg 86%
    12:00 +29°C° 0.7 mm 2 mps 752 mmHg 82%
    13:00 +29°C° 0.7 mm 2 mps 751 mmHg 79%
    14:00 +30°C° 0.7 mm 1 mps 750 mmHg 76%
    15:00 +30°C° 0.2 mm 1 mps 750 mmHg 77%
    16:00 +29°C° 0.2 mm 1 mps 749 mmHg 77%
    17:00 +29°C° 0.2 mm 1 mps 749 mmHg 77%
    18:00 +28°C° 0 mm 1 mps 750 mmHg 80%
    19:00 +27°C° 0 mm 1 mps 750 mmHg 83%
    20:00 +26°C° 0 mm 1 mps 751 mmHg 86%
    21:00 +26°C° 0 mm 1 mps 751 mmHg 86%
    22:00 +26°C° 0 mm 1 mps 751 mmHg 87%
    23:00 +26°C° 0 mm 1 mps 752 mmHg 87%

    18 November, Monday

    Time Temperature Precipitation Wind Pressure Humidity
    00:00 +25°C° 0 mm 1 mps 751 mmHg 88%
    01:00 +25°C° 0 mm 1 mps 751 mmHg 90%
    02:00 +25°C° 0 mm 1 mps 751 mmHg 91%
    03:00 +25°C° 0 mm 1 mps 751 mmHg 92%
    04:00 +25°C° 0 mm 1 mps 751 mmHg 92%
    05:00 +25°C° 0 mm 1 mps 751 mmHg 93%
    06:00 +26°C° 0 mm 1 mps 752 mmHg 87%
    07:00 +27°C° 0 mm 2 mps 752 mmHg 81%
    08:00 +28°C° 0 mm 2 mps 753 mmHg 75%
    09:00 +30°C° 0 mm 2 mps 753 mmHg 68%
    10:00 +32°C° 0 mm 2 mps 753 mmHg 60%
    11:00 +35°C° 0 mm 2 mps 753 mmHg 52%
    12:00 +36°C° 0 mm 2 mps 752 mmHg 50%
    13:00 +36°C° 0 mm 2 mps 751 mmHg 49%
    14:00 +37°C° 0 mm 2 mps 750 mmHg 47%
    15:00 +36°C° 0.1 mm 2 mps 750 mmHg 52%
    16:00 +35°C° 0.1 mm 2 mps 749 mmHg 57%
    17:00 +34°C° 0.1 mm 2 mps 749 mmHg 62%
    18:00 +31°C° 0.1 mm 2 mps 750 mmHg 70%
    19:00 +29°C° 0.1 mm 1 mps 750 mmHg 77%
    20:00 +27°C° 0.1 mm 1 mps 751 mmHg 85%
    21:00 +27°C° 0.6 mm 1 mps 751 mmHg 86%
    22:00 +27°C° 0.6 mm 1 mps 751 mmHg 88%
    23:00 +26°C° 0.6 mm 1 mps 752 mmHg 90%
    Show more